Pittsfield, MA

1:10 AM EDT on October 24, 2019 (GMT -0400)
Pittsfield Municipal

Weather History for KPSF - August, 2019

Change the Weather History Date:

Thursday, August 8, 2019

  Actual Average Record
Temperature  
Mean Temperature 72 °F 68 °F  
Max Temperature 82 °F 78 °F 93 °F (1937)
Min Temperature 62 °F 57 °F 45 °F (1950)
Degree Days  
Heating Degree Days 0 1  
Month to date heating degree days 0 8  
Since 1 June heating degree days 67 140  
Since 1 July heating degree days 0 39  
Cooling Degree Days 7 4  
Month to date cooling degree days 35 32  
Year to date cooling degree days 311 209  
Since 1 June cooling degree days 305 196  
Growing Degree Days 22 (Base 50)    
Moisture  
Dew Point 63 °F    
Average Humidity 72    
Maximum Humidity 93    
Minimum Humidity 51    
Precipitation  
Precipitation 0.05 in 0.14 in 1.90 in (1947)
Month to date precipitation 0.48 1.17  
Year to date precipitation 26.62 26.86  
Sea Level Pressure  
Sea Level Pressure 29.68 in    
Wind  
Wind Speed 6 mph (SW)    
Max Wind Speed 32 mph    
Max Gust Speed 39 mph    
Visibility 9 miles    
Events Rain , Thunderstorm    
T = Trace of Precipitation, MM = Missing Value Source: NWS Daily Summary

Daily Weather History Graph

Daily Weather History Graph

Search for Another Location

Airport or City:

Astronomy

Aug. 08, 2019 Rise Set
Actual Time 5:52 AM EDT 8:04 PM EDT
Civil Twilight 5:21 AM EDT 8:35 PM EDT
Nautical Twilight 4:43 AM EDT 9:13 PM EDT
Astronomical Twilight 4:00 AM EDT 9:55 PM EDT
Moon 2:37 PM EDT (8/8) 12:13 AM EDT (8/8)
Length of Visible Light 15h 13m
Length of Day
14h 11m
First Quarter, 60% of the Moon is Illuminated
Aug 8
First Quarter
Aug 15
Full
Aug 23
Last Quarter
Aug 30
New
Sep 5
First Quarter

Hourly Weather History & Observations

Time (EDT) Temp. Heat Index Dew Point Humidity Pressure Visibility Wind Dir Wind Speed Gust Speed Precip Events Conditions
12:18 AM 66.0 °F - 64.0 °F 93% 29.77 in 5.0 mi Calm Calm - N/A   Overcast
12:31 AM 66.9 °F - 64.0 °F 90% 29.77 in 8.0 mi SSE 3.5 mph - N/A   Overcast
12:42 AM 66.9 °F - 64.0 °F 90% 29.76 in 10.0 mi ESE 3.5 mph - 0.00 in Rain Light Rain
12:52 AM 66.2 °F - 64.4 °F 94% 29.76 in 10.0 mi ESE 3.5 mph - 0.01 in Rain Light Rain
12:54 AM 66.9 °F - 64.0 °F 90% 29.68 in 10.0 mi Variable 3.5 mph - 0.01 in   Mostly Cloudy
1:54 AM 66.9 °F - 64.0 °F 90% 29.66 in 7.0 mi Calm Calm - N/A   Mostly Cloudy
2:16 AM 66.0 °F - 64.0 °F 93% 29.74 in 2.5 mi Calm Calm - N/A   Mostly Cloudy
2:26 AM 66.9 °F - 64.0 °F 90% 29.73 in 7.0 mi WSW 3.5 mph - N/A   Mostly Cloudy
2:54 AM 66.9 °F - 64.0 °F 90% 29.65 in 9.0 mi Calm Calm - N/A   Overcast
3:19 AM 68.0 °F - 64.0 °F 87% 29.72 in 10.0 mi SSW 6.9 mph - N/A   Overcast
3:54 AM 66.9 °F - 64.0 °F 90% 29.64 in 10.0 mi SW 4.6 mph - N/A   Overcast
4:07 AM 66.9 °F - 64.0 °F 90% 29.72 in 10.0 mi SW 5.8 mph - N/A   Overcast
4:54 AM 66.9 °F - 64.0 °F 90% 29.65 in 10.0 mi SW 6.9 mph - N/A   Overcast
5:40 AM 66.9 °F - 64.0 °F 90% 29.73 in 10.0 mi SW 5.8 mph - N/A   Overcast
5:49 AM 66.2 °F - 64.4 °F 94% 29.73 in 10.0 mi SW 6.9 mph - N/A   Overcast
5:54 AM 66.9 °F - 64.0 °F 90% 29.66 in 10.0 mi SW 6.9 mph - N/A   Overcast
6:07 AM 66.9 °F - 64.0 °F 90% 29.73 in 9.0 mi SW 9.2 mph - 0.00 in Rain Light Rain
6:21 AM 66.9 °F - 64.0 °F 90% 29.73 in 5.0 mi SW 5.8 mph - 0.00 in Rain Light Rain
6:39 AM 66.9 °F - 64.0 °F 90% 29.73 in 10.0 mi SW 6.9 mph - 0.00 in   Overcast
6:54 AM 68.0 °F - 64.0 °F 87% 29.66 in 10.0 mi SW 6.9 mph - 0.00 in   Overcast
7:07 AM 68.0 °F - 64.0 °F 87% 29.73 in 10.0 mi SW 4.6 mph - N/A   Overcast
7:54 AM 68.0 °F - 64.9 °F 90% 29.66 in 10.0 mi WSW 6.9 mph - N/A   Overcast
8:02 AM 68.0 °F - 64.0 °F 87% 29.73 in 10.0 mi WSW 6.9 mph - N/A   Overcast
8:54 AM 72.0 °F - 66.0 °F 81% 29.66 in 10.0 mi West 8.1 mph - N/A   Overcast
9:10 AM 71.1 °F - 64.0 °F 78% 29.73 in 10.0 mi WSW 9.2 mph - N/A   Overcast
9:54 AM 71.1 °F - 64.9 °F 81% 29.66 in 10.0 mi SW 8.1 mph - N/A   Overcast
10:02 AM 71.1 °F - 64.0 °F 78% 29.73 in 10.0 mi West 10.4 mph - N/A   Overcast
10:17 AM 72.0 °F - 64.0 °F 76% 29.73 in 10.0 mi West 8.1 mph - N/A   Overcast
10:54 AM 73.9 °F - 63.0 °F 68% 29.65 in 10.0 mi West 8.1 mph - N/A   Mostly Cloudy
11:04 AM 75.0 °F - 62.1 °F 64% 29.73 in 10.0 mi West 5.8 mph - N/A   Scattered Clouds
11:54 AM 77.0 °F - 61.0 °F 58% 29.65 in 10.0 mi SW 4.6 mph - N/A   Partly Cloudy
12:54 PM 79.0 °F - 61.0 °F 54% 29.64 in 10.0 mi Variable 5.8 mph - N/A   Scattered Clouds
1:54 PM 80.1 °F 81.5 °F 63.0 °F 56% 29.60 in 10.0 mi SSW 9.2 mph - N/A   Mostly Cloudy
2:54 PM 81.0 °F 81.9 °F 62.1 °F 52% 29.58 in 10.0 mi SSW 10.4 mph 18.4 mph N/A   Mostly Cloudy
3:54 PM 81.0 °F 81.9 °F 62.1 °F 52% 29.58 in 10.0 mi SSW 11.5 mph 19.6 mph N/A   Clear
4:54 PM 82.0 °F 83.0 °F 62.1 °F 51% 29.57 in 10.0 mi SW 9.2 mph 18.4 mph N/A   Partly Cloudy
5:05 PM 80.1 °F 81.1 °F 61.0 °F 52% 29.65 in 10.0 mi SW 12.7 mph 20.7 mph N/A Thunderstorm Scattered Clouds
5:42 PM 81.0 °F 81.7 °F 61.0 °F 50% 29.66 in 10.0 mi WSW 13.8 mph 21.9 mph N/A   Clear
5:54 PM 80.1 °F 80.9 °F 60.1 °F 50% 29.57 in 10.0 mi SW 15.0 mph 21.9 mph N/A   Partly Cloudy
6:08 PM 70.0 °F - 55.9 °F 61% 29.70 in 8.0 mi West 28.8 mph 39.1 mph 0.00 in Rain , Thunderstorm Light Rain
6:27 PM 66.0 °F - 59.0 °F 78% 29.71 in 10.0 mi WSW 12.7 mph - 0.02 in Rain Light Rain
6:54 PM 64.9 °F - 60.1 °F 84% 29.64 in 10.0 mi SSW 5.8 mph - 0.04 in Rain Light Rain
7:54 PM 64.0 °F - 60.1 °F 87% 29.64 in 10.0 mi SW 3.5 mph - 0.01 in   Mostly Cloudy
8:54 PM 64.9 °F - 59.0 °F 81% 29.62 in 10.0 mi Calm Calm - N/A   Clear
9:54 PM 62.1 °F - 59.0 °F 90% 29.65 in 10.0 mi Calm Calm - N/A   Clear
10:54 PM 63.0 °F - 59.0 °F 87% 29.64 in 10.0 mi SW 4.6 mph - N/A   Mostly Cloudy
11:54 PM 64.0 °F - 59.0 °F 84% 29.62 in 10.0 mi SW 5.8 mph - N/A   Clear